Time,TemperatureF,DewpointF,PressureIn,WindDirection,WindDirectionDegrees,WindSpeedMPH,WindSpeedGustMPH,Humidity,HourlyPrecipIn,Conditions,Clouds,dailyrainin,SoftwareType,DateUTC
2013-04-07 00:03:00,63.0,38.0,29.80,SSW,199,12.0,19.0,40,0.00,,,0.00,,2013-04-07 04:03:00,
2013-04-07 00:13:00,63.0,38.0,29.80,SSW,199,12.0,19.0,40,0.00,,,0.00,,2013-04-07 04:13:00,
2013-04-07 00:23:00,63.0,38.0,29.80,SW,223,11.0,21.0,40,0.00,,,0.00,,2013-04-07 04:23:00,
2013-04-07 00:32:00,63.0,38.0,29.81,SW,216,10.0,18.0,40,0.00,,,0.00,,2013-04-07 04:32:00,
2013-04-07 00:43:00,63.0,38.0,29.81,SW,216,10.0,18.0,40,0.00,,,0.00,,2013-04-07 04:43:00,
2013-04-07 00:53:00,62.0,38.0,29.80,South,178,10.0,17.0,41,0.00,,,0.00,,2013-04-07 04:53:00,
2013-04-07 01:02:00,62.0,38.0,29.80,South,169,10.0,17.0,41,0.00,,,0.00,,2013-04-07 05:02:00,
2013-04-07 01:12:00,62.0,38.0,29.80,South,169,10.0,17.0,41,0.00,,,0.00,,2013-04-07 05:12:00,
2013-04-07 01:22:00,62.0,38.0,29.80,South,175,11.0,17.0,41,0.00,,,0.00,,2013-04-07 05:22:00,
2013-04-07 01:33:00,62.0,38.0,29.79,SSE,159,12.0,22.0,41,0.00,,,0.00,,2013-04-07 05:33:00,
2013-04-07 01:42:00,62.0,38.0,29.79,SSE,159,12.0,22.0,41,0.00,,,0.00,,2013-04-07 05:42:00,
2013-04-07 01:52:00,62.0,38.0,29.80,SE,146,11.0,19.0,41,0.00,,,0.00,,2013-04-07 05:52:00,
2013-04-07 02:02:00,63.0,39.0,29.79,South,187,12.0,23.0,41,0.00,,,0.00,,2013-04-07 06:02:00,
2013-04-07 02:12:00,63.0,39.0,29.79,South,187,12.0,23.0,41,0.00,,,0.00,,2013-04-07 06:12:00,
2013-04-07 02:22:00,63.0,38.0,29.80,South,191,14.0,22.0,40,0.00,,,0.00,,2013-04-07 06:22:00,
2013-04-07 02:32:00,63.0,38.0,29.79,SSW,209,16.0,23.0,40,0.00,,,0.00,,2013-04-07 06:32:00,
2013-04-07 02:42:00,63.0,38.0,29.79,SSW,209,16.0,23.0,40,0.00,,,0.00,,2013-04-07 06:42:00,
2013-04-07 02:52:00,63.0,39.0,29.79,South,182,16.0,26.0,41,0.00,,,0.00,,2013-04-07 06:52:00,
2013-04-07 03:02:00,63.0,40.0,29.79,SSW,200,15.0,20.0,42,0.00,,,0.00,,2013-04-07 07:02:00,
2013-04-07 03:12:00,63.0,40.0,29.79,SSW,200,15.0,20.0,42,0.00,,,0.00,,2013-04-07 07:12:00,
2013-04-07 03:22:00,62.0,39.0,29.79,South,190,13.0,23.0,43,0.00,,,0.00,,2013-04-07 07:22:00,
2013-04-07 03:32:00,62.0,39.0,29.78,SW,232,14.0,20.0,43,0.00,,,0.00,,2013-04-07 07:32:00,
2013-04-07 03:42:00,62.0,39.0,29.78,SW,232,14.0,20.0,43,0.00,,,0.00,,2013-04-07 07:42:00,
2013-04-07 03:52:00,62.0,40.0,29.78,SSW,203,15.0,27.0,44,0.00,,,0.00,,2013-04-07 07:52:00,
2013-04-07 04:02:00,61.0,40.0,29.78,SSW,200,14.0,23.0,45,0.00,,,0.00,,2013-04-07 08:02:00,
2013-04-07 04:12:00,61.0,40.0,29.78,SW,217,14.0,21.0,45,0.00,,,0.00,,2013-04-07 08:12:00,
2013-04-07 04:22:00,61.0,40.0,29.78,SW,217,14.0,21.0,45,0.00,,,0.00,,2013-04-07 08:22:00,
2013-04-07 04:32:00,61.0,40.0,29.78,SW,227,12.0,24.0,46,0.00,,,0.00,,2013-04-07 08:32:00,
2013-04-07 04:42:00,61.0,40.0,29.78,SW,227,12.0,24.0,46,0.00,,,0.00,,2013-04-07 08:42:00,
2013-04-07 04:53:00,61.0,40.0,29.79,SSW,203,12.0,20.0,46,0.00,,,0.00,,2013-04-07 08:53:00,
2013-04-07 05:02:00,61.0,41.0,29.79,South,173,12.0,21.0,47,0.00,,,0.00,,2013-04-07 09:02:00,
2013-04-07 05:12:00,61.0,41.0,29.79,South,173,12.0,21.0,47,0.00,,,0.00,,2013-04-07 09:12:00,
2013-04-07 05:22:00,61.0,41.0,29.79,WSW,242,10.0,20.0,48,0.00,,,0.00,,2013-04-07 09:22:00,
2013-04-07 05:33:00,61.0,41.0,29.79,SW,226,11.0,19.0,48,0.00,,,0.00,,2013-04-07 09:33:00,
2013-04-07 05:43:00,61.0,41.0,29.79,SW,226,11.0,19.0,48,0.00,,,0.00,,2013-04-07 09:43:00,
2013-04-07 05:53:00,61.0,42.0,29.80,SSW,206,11.0,18.0,49,0.00,,,0.00,,2013-04-07 09:53:00,
2013-04-07 06:03:00,60.0,41.0,29.80,SW,228,9.0,18.0,50,0.00,,,0.00,,2013-04-07 10:03:00,
2013-04-07 06:13:00,60.0,41.0,29.80,SW,228,9.0,18.0,50,0.00,,,0.00,,2013-04-07 10:13:00,
2013-04-07 06:22:00,60.0,42.0,29.80,SW,215,11.0,18.0,51,0.00,,,0.00,,2013-04-07 10:22:00,
2013-04-07 06:33:00,60.0,42.0,29.80,SW,225,10.0,19.0,51,0.00,,,0.00,,2013-04-07 10:33:00,
2013-04-07 06:42:00,60.0,42.0,29.80,SW,225,10.0,19.0,51,0.00,,,0.00,,2013-04-07 10:42:00,
2013-04-07 06:54:00,60.0,42.0,29.81,SW,228,11.0,18.0,52,0.00,,,0.00,,2013-04-07 10:54:00,
2013-04-07 07:02:00,60.0,43.0,29.81,WNW,301,12.0,20.0,53,0.00,,,0.00,,2013-04-07 11:02:00,
2013-04-07 07:12:00,60.0,43.0,29.81,WNW,301,12.0,20.0,53,0.00,,,0.00,,2013-04-07 11:12:00,
2013-04-07 07:22:00,60.0,43.0,29.82,WSW,241,11.0,16.0,54,0.00,,,0.00,,2013-04-07 11:22:00,
2013-04-07 07:32:00,60.0,43.0,29.83,SW,214,9.0,14.0,54,0.00,,,0.00,,2013-04-07 11:32:00,
2013-04-07 07:42:00,60.0,43.0,29.83,SW,214,9.0,14.0,54,0.00,,,0.00,,2013-04-07 11:42:00,
2013-04-07 07:53:00,60.0,44.0,29.83,WSW,239,9.0,14.0,55,0.00,,,0.00,,2013-04-07 11:53:00,
2013-04-07 08:02:00,59.0,43.0,29.84,WSW,246,9.0,17.0,56,0.00,,,0.00,,2013-04-07 12:02:00,
2013-04-07 08:12:00,59.0,43.0,29.84,WSW,246,9.0,17.0,56,0.00,,,0.00,,2013-04-07 12:12:00,
2013-04-07 08:22:00,59.0,44.0,29.85,SW,224,10.0,15.0,57,0.00,,,0.00,,2013-04-07 12:22:00,
2013-04-07 08:33:00,59.0,44.0,29.85,West,264,10.0,15.0,57,0.00,,,0.00,,2013-04-07 12:33:00,
2013-04-07 08:42:00,59.0,44.0,29.85,West,264,10.0,15.0,57,0.00,,,0.00,,2013-04-07 12:42:00,
2013-04-07 08:53:00,59.0,44.0,29.86,West,274,11.0,16.0,58,0.00,,,0.00,,2013-04-07 12:53:00,
2013-04-07 09:03:00,60.0,45.0,29.86,WSW,244,10.0,15.0,57,0.00,,,0.00,,2013-04-07 13:03:00,
2013-04-07 09:13:00,60.0,45.0,29.86,WSW,244,10.0,15.0,57,0.00,,,0.00,,2013-04-07 13:13:00,
2013-04-07 09:22:00,61.0,45.0,29.86,WSW,248,8.0,12.0,56,0.00,,,0.00,,2013-04-07 13:22:00,
2013-04-07 09:32:00,62.0,46.0,29.86,SW,227,10.0,16.0,56,0.00,,,0.00,,2013-04-07 13:32:00,
2013-04-07 09:42:00,62.0,46.0,29.86,SW,227,10.0,16.0,56,0.00,,,0.00,,2013-04-07 13:42:00,
2013-04-07 09:53:00,62.0,46.0,29.86,WSW,242,9.0,14.0,56,0.00,,,0.00,,2013-04-07 13:53:00,
2013-04-07 10:02:00,62.0,46.0,29.86,WSW,251,10.0,16.0,56,0.00,,,0.00,,2013-04-07 14:02:00,
2013-04-07 10:12:00,62.0,46.0,29.86,WSW,251,10.0,16.0,56,0.00,,,0.00,,2013-04-07 14:12:00,
2013-04-07 10:23:00,62.0,46.0,29.87,WSW,252,9.0,14.0,56,0.00,,,0.00,,2013-04-07 14:23:00,
2013-04-07 10:32:00,63.0,47.0,29.87,SW,233,10.0,14.0,55,0.00,,,0.00,,2013-04-07 14:32:00,
2013-04-07 10:43:00,63.0,47.0,29.87,SW,233,10.0,14.0,55,0.00,,,0.00,,2013-04-07 14:43:00,
2013-04-07 10:53:00,64.0,47.0,29.87,WNW,301,8.0,11.0,54,0.00,,,0.00,,2013-04-07 14:53:00,
2013-04-07 11:03:00,65.0,47.0,29.88,WSW,251,9.0,15.0,52,0.00,,,0.00,,2013-04-07 15:03:00,
2013-04-07 11:12:00,65.0,46.0,29.88,WSW,247,9.0,12.0,51,0.00,,,0.00,,2013-04-07 15:12:00,
2013-04-07 11:22:00,65.0,46.0,29.88,WSW,247,9.0,12.0,51,0.00,,,0.00,,2013-04-07 15:22:00,
2013-04-07 11:33:00,66.0,47.0,29.88,SW,236,9.0,14.0,50,0.00,,,0.00,,2013-04-07 15:33:00,
2013-04-07 11:44:00,66.0,47.0,29.88,SW,236,9.0,14.0,50,0.00,,,0.00,,2013-04-07 15:44:00,
2013-04-07 11:55:00,67.0,47.0,29.89,WSW,250,7.0,12.0,48,0.00,,,0.00,,2013-04-07 15:55:00,
2013-04-07 12:03:00,68.0,48.0,29.89,West,260,9.0,13.0,48,0.00,,,0.00,,2013-04-07 16:03:00,
2013-04-07 12:13:00,68.0,48.0,29.89,West,260,9.0,13.0,48,0.00,,,0.00,,2013-04-07 16:13:00,
2013-04-07 12:24:00,68.0,46.0,29.89,WSW,242,7.0,11.0,46,0.00,,,0.00,,2013-04-07 16:24:00,
2013-04-07 12:33:00,68.0,45.0,29.89,SW,233,9.0,14.0,43,0.00,,,0.00,,2013-04-07 16:33:00,
2013-04-07 12:42:00,68.0,45.0,29.89,SW,233,9.0,14.0,43,0.00,,,0.00,,2013-04-07 16:42:00,
2013-04-07 12:53:00,69.0,45.0,29.89,WSW,252,6.0,13.0,42,0.00,,,0.00,,2013-04-07 16:53:00,
2013-04-07 13:04:00,70.0,46.0,29.89,WNW,302,5.0,7.0,42,0.00,,,0.00,,2013-04-07 17:04:00,
2013-04-07 13:13:00,70.0,46.0,29.89,WNW,302,5.0,7.0,42,0.00,,,0.00,,2013-04-07 17:13:00,
2013-04-07 13:23:00,70.0,45.0,29.89,WSW,257,6.0,10.0,41,0.00,,,0.00,,2013-04-07 17:23:00,
2013-04-07 13:33:00,71.0,45.0,29.88,West,264,6.0,10.0,39,0.00,,,0.00,,2013-04-07 17:33:00,
2013-04-07 13:43:00,71.0,45.0,29.88,West,264,6.0,10.0,39,0.00,,,0.00,,2013-04-07 17:43:00,
2013-04-07 13:54:00,71.0,45.0,29.88,West,275,7.0,14.0,40,0.00,,,0.00,,2013-04-07 17:54:00,
2013-04-07 14:02:00,71.0,43.0,29.88,West,281,9.0,15.0,37,0.00,,,0.00,,2013-04-07 18:02:00,
2013-04-07 14:13:00,71.0,43.0,29.88,West,281,9.0,15.0,37,0.00,,,0.00,,2013-04-07 18:13:00,
2013-04-07 14:23:00,72.0,43.0,29.87,SSW,203,9.0,16.0,35,0.00,,,0.00,,2013-04-07 18:23:00,
2013-04-07 14:33:00,72.0,43.0,29.88,WSW,257,10.0,14.0,35,0.00,,,0.00,,2013-04-07 18:33:00,
2013-04-07 14:43:00,72.0,43.0,29.88,WSW,257,10.0,14.0,35,0.00,,,0.00,,2013-04-07 18:43:00,
2013-04-07 14:53:00,72.0,44.0,29.87,SW,232,11.0,15.0,36,0.00,,,0.00,,2013-04-07 18:53:00,
2013-04-07 15:02:00,72.0,43.0,29.87,WSW,246,8.0,19.0,35,0.00,,,0.00,,2013-04-07 19:02:00,
2013-04-07 15:12:00,72.0,43.0,29.87,WSW,246,8.0,19.0,35,0.00,,,0.00,,2013-04-07 19:12:00,
2013-04-07 15:22:00,72.0,43.0,29.87,SW,232,6.0,17.0,35,0.00,,,0.00,,2013-04-07 19:22:00,
2013-04-07 15:32:00,72.0,43.0,29.87,WSW,258,9.0,14.0,35,0.00,,,0.00,,2013-04-07 19:32:00,
2013-04-07 15:42:00,72.0,43.0,29.87,WSW,258,9.0,14.0,35,0.00,,,0.00,,2013-04-07 19:42:00,
2013-04-07 15:55:00,72.0,43.0,29.87,SSW,208,11.0,16.0,35,0.00,,,0.00,,2013-04-07 19:55:00,
2013-04-07 16:02:00,73.0,43.0,29.87,WSW,249,8.0,12.0,34,0.00,,,0.00,,2013-04-07 20:02:00,
2013-04-07 16:13:00,73.0,43.0,29.87,WSW,249,8.0,12.0,34,0.00,,,0.00,,2013-04-07 20:13:00,
2013-04-07 16:22:00,73.0,43.0,29.86,SW,236,10.0,14.0,34,0.00,,,0.00,,2013-04-07 20:22:00,
2013-04-07 16:32:00,74.0,43.0,29.86,SW,224,10.0,17.0,33,0.00,,,0.00,,2013-04-07 20:32:00,
2013-04-07 16:43:00,74.0,43.0,29.86,SW,224,10.0,17.0,33,0.00,,,0.00,,2013-04-07 20:43:00,
2013-04-07 16:52:00,73.0,44.0,29.86,South,188,11.0,17.0,35,0.00,,,0.00,,2013-04-07 20:52:00,
2013-04-07 17:03:00,74.0,43.0,29.86,SW,234,10.0,16.0,33,0.00,,,0.00,,2013-04-07 21:03:00,
2013-04-07 17:13:00,74.0,43.0,29.86,SW,234,10.0,16.0,33,0.00,,,0.00,,2013-04-07 21:13:00,
2013-04-07 17:22:00,73.0,42.0,29.87,West,261,10.0,14.0,33,0.00,,,0.00,,2013-04-07 21:22:00,
2013-04-07 17:33:00,73.0,43.0,29.86,SSW,205,9.0,14.0,34,0.00,,,0.00,,2013-04-07 21:33:00,
2013-04-07 17:43:00,73.0,43.0,29.86,SSW,205,9.0,14.0,34,0.00,,,0.00,,2013-04-07 21:43:00,
2013-04-07 17:53:00,72.0,44.0,29.87,West,259,8.0,14.0,36,0.00,,,0.00,,2013-04-07 21:53:00,
2013-04-07 18:03:00,72.0,44.0,29.87,West,265,5.0,9.0,36,0.00,,,0.00,,2013-04-07 22:03:00,
2013-04-07 18:13:00,72.0,44.0,29.87,West,265,5.0,9.0,36,0.00,,,0.00,,2013-04-07 22:13:00,
2013-04-07 18:23:00,73.0,45.0,29.86,WSW,246,5.0,10.0,37,0.00,,,0.00,,2013-04-07 22:23:00,
2013-04-07 18:33:00,73.0,46.0,29.86,West,263,3.0,11.0,38,0.00,,,0.00,,2013-04-07 22:33:00,
2013-04-07 18:43:00,73.0,46.0,29.86,West,263,3.0,11.0,38,0.00,,,0.00,,2013-04-07 22:43:00,
2013-04-07 18:53:00,73.0,47.0,29.86,SW,226,5.0,7.0,40,0.00,,,0.00,,2013-04-07 22:53:00,
2013-04-07 19:03:00,73.0,47.0,29.86,South,178,3.0,4.0,40,0.00,,,0.00,,2013-04-07 23:03:00,
2013-04-07 19:13:00,73.0,47.0,29.86,South,178,3.0,4.0,40,0.00,,,0.00,,2013-04-07 23:13:00,
2013-04-07 19:22:00,73.0,47.0,29.85,WSW,238,2.0,4.0,40,0.00,,,0.00,,2013-04-07 23:22:00,
2013-04-07 19:32:00,73.0,47.0,29.86,West,275,2.0,2.0,39,0.00,,,0.00,,2013-04-07 23:32:00,
2013-04-07 19:42:00,73.0,47.0,29.86,West,275,2.0,2.0,39,0.00,,,0.00,,2013-04-07 23:42:00,
2013-04-07 19:52:00,72.0,46.0,29.85,SSW,203,5.0,8.0,40,0.00,,,0.00,,2013-04-07 23:52:00,
2013-04-07 20:02:00,72.0,47.0,29.85,SSW,200,5.0,9.0,41,0.00,,,0.00,,2013-04-08 00:02:00,
2013-04-07 20:12:00,72.0,47.0,29.85,SSW,200,5.0,9.0,41,0.00,,,0.00,,2013-04-08 00:12:00,
2013-04-07 20:22:00,68.0,51.0,29.86,South,182,10.0,16.0,54,0.00,,,0.00,,2013-04-08 00:22:00,
2013-04-07 20:32:00,66.0,50.0,29.86,SSE,158,7.0,8.0,57,0.00,,,0.00,,2013-04-08 00:32:00,
2013-04-07 20:42:00,66.0,50.0,29.86,SSE,158,7.0,8.0,57,0.00,,,0.00,,2013-04-08 00:42:00,
2013-04-07 20:53:00,65.0,50.0,29.87,SSE,153,8.0,14.0,58,0.00,,,0.00,,2013-04-08 00:53:00,
2013-04-07 21:02:00,65.0,51.0,29.87,SSE,167,6.0,11.0,60,0.00,,,0.00,,2013-04-08 01:02:00,
2013-04-07 21:12:00,65.0,51.0,29.87,SSE,167,6.0,11.0,60,0.00,,,0.00,,2013-04-08 01:12:00,
2013-04-07 21:22:00,64.0,53.0,29.87,SSE,161,9.0,13.0,67,0.00,,,0.00,,2013-04-08 01:22:00,
2013-04-07 21:33:00,62.0,53.0,29.88,West,281,8.0,14.0,72,0.00,,,0.00,,2013-04-08 01:33:00,
2013-04-07 21:43:00,62.0,53.0,29.88,West,281,8.0,14.0,72,0.00,,,0.00,,2013-04-08 01:43:00,
2013-04-07 21:55:00,62.0,54.0,29.88,NNW,340,7.0,11.0,75,0.00,,,0.00,,2013-04-08 01:55:00,
2013-04-07 22:02:00,61.0,54.0,29.88,ESE,114,7.0,14.0,77,0.00,,,0.00,,2013-04-08 02:02:00,
2013-04-07 22:12:00,61.0,54.0,29.88,ESE,114,7.0,14.0,77,0.00,,,0.00,,2013-04-08 02:12:00,
2013-04-07 22:22:00,61.0,54.0,29.88,SSW,193,6.0,9.0,77,0.00,,,0.00,,2013-04-08 02:22:00,
2013-04-07 22:33:00,61.0,54.0,29.89,SSW,194,4.0,8.0,77,0.00,,,0.00,,2013-04-08 02:33:00,
2013-04-07 22:45:00,61.0,54.0,29.89,SSW,194,4.0,8.0,77,0.00,,,0.00,,2013-04-08 02:45:00,
2013-04-07 22:52:00,61.0,53.0,29.89,South,178,4.0,6.0,76,0.00,,,0.00,,2013-04-08 02:52:00,
2013-04-07 23:06:00,61.0,53.0,29.90,SSW,193,5.0,9.0,76,0.00,,,0.00,,2013-04-08 03:06:00,
2013-04-07 23:14:00,61.0,53.0,29.90,SSW,193,5.0,9.0,76,0.00,,,0.00,,2013-04-08 03:14:00,
2013-04-07 23:23:00,61.0,53.0,29.89,SSE,165,6.0,9.0,75,0.00,,,0.00,,2013-04-08 03:23:00,
2013-04-07 23:33:00,61.0,53.0,29.90,SSW,205,6.0,10.0,76,0.00,,,0.00,,2013-04-08 03:33:00,
2013-04-07 23:47:00,61.0,53.0,29.90,SSW,205,6.0,10.0,76,0.00,,,0.00,,2013-04-08 03:47:00,
2013-04-07 23:53:00,59.0,54.0,29.91,SSW,205,10.0,18.0,84,0.01,,,0.01,,2013-04-08 03:53:00,